Location: Zapote
(9.9191°N, 84.0597°W)
Time: 04:19:26
(UTC-06:00)

Altair - Visible Passes

Search period start: 01 March 2021 00:00
Search period end: 11 March 2021 00:00
Orbit: 1501 x 1682 km, 47.2° (Epoch: 28 February)

Date Brightness Start Highest point End Pass type
(mag) Time Alt. Az. Time Alt. Az. Time Alt. Az.
01 Mar 8.3 02:38:01 47° E 02:38:01 47° E 02:45:17 10° SE visible
01 Mar 8.3 04:36:07 26° W 04:40:00 33° SW 04:48:46 10° S visible
02 Mar 8.9 02:15:05 30° ESE 02:15:05 30° ESE 02:19:54 10° ESE visible
02 Mar 8.0 04:13:10 35° WSW 04:14:48 37° SW 04:23:53 10° SSE visible
03 Mar 9.4 01:52:06 19° ESE 01:52:06 19° ESE 01:54:28 10° ESE visible
03 Mar 8.0 03:50:11 42° SW 03:50:11 42° SW 03:58:58 10° SSE visible
04 Mar 8.2 03:27:09 39° SSW 03:27:09 39° SSW 03:34:00 10° SSE visible
05 Mar 8.6 03:04:04 31° S 03:04:04 31° S 03:08:59 10° SSE visible
06 Mar 9.1 02:40:54 22° SSE 02:40:54 22° SSE 02:43:56 10° SSE visible
07 Mar 9.5 02:17:41 14° SSE 02:17:41 14° SSE 02:18:51 10° SSE visible
